x

South Bermuda - 300 Nm Sse Of Bermuda (41049) Wave Buoy

1:50am - Wed 1st Jul 2015 All times are UTC.

  • Sig Wave height 3.9ft
  • Swell Direction
  • Peak Period 8s
  • Average Period 5s
  • Wind
    13mph, 16mph gusts
  • Sea Temp 83°f
  • Air Temp 82°f
  • Sea Pressure 1026.3mb

More Historic Weather Station data

Upgrade to MSW Pro to gain access to the past 30 days of data for over 8000 Wavebouys and Weather Stations around the globe.

Join Pro

Comparision Forecast

View Surf forecast
   
Wed 07/01 1:50am 4ft 8s 5s 13 16 mph 1026.3mb 83f 82f
12:50am 4ft 8s 5s 13 16 mph 1025.8mb 83f 82f
Tue 06/30 11:50pm 4ft 8s 5s 13 16 mph 1025.2mb 83f 82f
10:50pm 3.5ft 8s 5s 13 16 mph 1024.9mb 83f 82f
9:50pm 3.5ft 8s 5s 13 16 mph 1024.6mb 84f 82f
8:50pm 4ft 9s 6s 13 16 mph 1024.7mb 84f 82f
7:50pm 3.5ft 9s 6s 11 13 mph 1025.2mb 84f 82f
6:50pm 4ft 9s 6s 11 13 mph 1025.4mb 84f 82f
5:50pm 4ft 8s 6s 13
mph
1025.7mb 84f 82f
4:50pm 3.5ft 9s 6s 11 16 mph 1026.1mb 84f 82f
3:50pm 3.5ft 9s 6s 11 13 mph 1026.7mb 84f 82f
2:50pm 4ft 9s 6s 11 13 mph 1026.4mb 83f 82f
1:50pm 4ft 9s 6s 11 13 mph 1026.2mb 83f 82f
12:50pm 4ft 8s 6s 9 11 mph 1026.3mb 83f 82f
11:50am 3.5ft 8s 6s 11 13 mph 1025.9mb 83f 82f
10:50am 3.5ft 9s 6s 11 16 mph 1025.6mb 83f 82f
9:50am 3.5ft 9s 6s 9 16 mph 1025mb 83f 81f
8:50am 3.5ft 8s 6s 7 9 mph 1024.8mb 83f 81f
7:50am 3.5ft 8s 6s 9 11 mph 1024.3mb 83f 81f
6:50am 3.5ft 9s 6s 9 11 mph 1024.2mb 83f 81f
5:50am 3ft 8s 6s 11
mph
1024.5mb 83f 81f
4:50am 3.5ft 8s 6s 11 13 mph 1024.9mb 83f 82f
3:50am 3.5ft 8s 6s 9 11 mph 1025.8mb 83f 82f
2:50am 3ft 8s 6s 7 9 mph 1026.3mb 83f 82f
1:50am 3ft 8s 6s 9 11 mph 1026.2mb 83f 82f
12:50am 3ft 8s 6s 9 11 mph 1025.8mb 83f 82f
Mon 06/29 11:50pm 3ft 8s 6s 9 11 mph 1025.5mb 83f 82f
10:50pm 3.5ft 8s 6s 11 13 mph 1025.1mb 84f 82f
9:50pm 3.5ft 8s 6s 7 9 mph 1024.7mb 84f 82f
8:50pm 3.5ft 8s 6s 7 9 mph 1024.5mb 84f 82f
7:50pm 3ft 9s 5s 9 11 mph 1024.6mb 84f 82f
6:50pm 3.5ft 8s 6s 9 11 mph 1024.9mb 84f 82f
5:50pm 3.5ft 8s 6s 11 13 mph 1025.1mb 83f 82f
4:50pm 3.5ft 8s 6s 11 13 mph 1025.4mb 83f 82f
3:50pm 3.5ft 8s 6s 11 13 mph 1025.6mb 83f 82f
2:50pm 3.5ft 8s 6s 11 13 mph 1025.5mb 83f 82f
1:50pm 3ft 8s 6s 9 11 mph 1025.6mb 83f 82f
12:50pm 3.5ft 8s 6s 9 11 mph 1025.5mb 83f 82f
11:50am 3ft 9s 6s 11
mph
1025.3mb 83f 82f
10:50am 3.5ft 8s 6s 9 11 mph 1025mb 83f 82f
9:50am 3ft 8s 6s 9 11 mph 1024.5mb 83f 81f
8:50am 3.5ft 8s 6s 9 11 mph 1024.1mb 83f 81f
7:50am 3.5ft 7s 6s 11 13 mph 1023.9mb 83f 81f
6:50am 3.5ft 7s 6s 9 11 mph 1024.3mb 83f 81f
5:50am 3.5ft 8s 6s 11 13 mph 1024.5mb 83f 81f
4:50am 3.5ft 8s 6s 11 13 mph 1024.9mb 83f 82f
3:50am 3.5ft 7s 6s 9 11 mph 1025.4mb 83f 82f
2:50am 3.5ft 8s 6s 9 11 mph 1025.9mb 83f 82f
1:50am 3.5ft 8s 6s 9 11 mph 1025.9mb 83f 82f
12:50am 3.5ft 8s 6s 9 11 mph 1025.4mb 83f 82f
Sun 06/28 11:50pm 3.5ft 7s 6s 7 9 mph 1024.9mb 83f 82f
10:50pm 3.5ft 8s 6s 9
mph
1024.5mb 83f 82f
9:50pm 3.5ft 8s 6s 9 11 mph 1024mb 83f 83f
8:50pm 3.5ft 7s 5s 9 11 mph 1023.8mb 83f 83f
7:50pm 3.5ft 8s 5s 11 13 mph 1023.7mb 83f 82f
6:50pm 3.5ft 8s 5s 11 13 mph 1024.1mb 83f 82f
5:50pm 3.5ft 8s 5s 13 16 mph 1024.5mb 83f 82f
4:50pm 3.5ft 8s 5s 11 13 mph 1024.8mb 83f 82f
3:50pm 3.5ft 7s 5s 13 16 mph 1024.9mb 83f 82f
2:50pm 3.5ft 8s 5s 11 13 mph 1024.8mb 83f 82f
1:50pm 3.5ft 8s 5s 11 13 mph 1024.7mb 83f 82f
12:50pm 3.5ft 8s 5s 11 13 mph 1024.7mb 83f 82f
11:50am 3.5ft 8s 5s 13
mph
1024.8mb 83f 82f
10:50am 3.5ft 8s 5s 13 16 mph 1024.4mb 83f 82f
9:50am 3.5ft 8s 5s 13 16 mph 1023.9mb 83f 81f
8:50am 3ft 8s 5s 11 16 mph 1023.7mb 83f 81f
7:50am 3.5ft 7s 6s 9 11 mph 1023.6mb 83f 81f
6:50am 3.5ft 7s 6s 9
mph
1023.6mb 83f 81f
5:50am 3.5ft 7s 6s 9 11 mph 1024mb 83f 82f
4:50am 3.5ft 7s 6s 9 11 mph 1024.6mb 83f 82f
3:50am 3.5ft 7s 6s 9 11 mph 1025.1mb 83f 82f
2:50am 3.5ft 8s 6s 9 11 mph 1025.3mb 83f 82f
1:50am 3.5ft 8s 6s 9 11 mph 1025.5mb 83f 82f
12:50am 3ft 8s 6s 9 11 mph 1025.2mb 83f 82f
Sat 06/27 11:50pm 3.5ft 8s 6s 7 9 mph 1025mb 83f 82f
10:50pm 3ft 8s 6s 7 9 mph 1024.8mb 83f 82f
9:50pm 3.5ft 8s 6s 7 9 mph 1024.5mb 83f 82f
8:50pm 3.5ft 8s 5s 9
mph
1024.1mb 84f 82f
7:50pm 3.5ft 8s 5s 7 9 mph 1024.2mb 84f 82f
6:50pm 3.5ft 8s 5s 9
mph
1024.4mb 83f 82f
5:50pm 4ft 7s 6s 9 11 mph 1024.8mb 83f 82f
4:50pm 3.5ft 8s 5s 9 11 mph 1025.3mb 83f 82f
3:50pm 3.5ft 7s 5s 11
mph
1025.6mb 83f 81f
2:50pm 4ft 8s 5s 11 13 mph 1025.8mb 83f 81f
1:50pm 4ft 8s 5s 11 16 mph 1025.6mb 83f 81f
12:50pm 3.5ft 8s 5s 11 13 mph 1025.4mb 83f 81f
11:50am 4.5ft 8s 5s 13 16 mph 1025.4mb 83f 81f
10:50am 4ft 8s 5s 13 16 mph 1024.8mb 83f 81f
9:50am 4ft 8s 5s 13 18 mph 1024.3mb 83f 81f
8:50am 4.5ft 8s 5s 16 18 mph 1023.9mb 83f 81f
7:50am 4.5ft 8s 5s 16 18 mph 1023.9mb 83f 81f
6:50am 4.5ft 8s 5s 16 20 mph 1024mb 83f 81f
5:50am 4ft 8s 6s 13 18 mph 1024.4mb 83f 81f
4:50am 3.5ft 8s 5s 13 16 mph 1024.8mb 83f 81f
3:50am 4ft 8s 6s 16 18 mph 1025.4mb 83f 82f
2:50am 3.5ft 8s 6s 11 13 mph 1026mb 83f 82f